Showing default

TEN-KOH 2, 68261

Orbit data source: Space-Track

TEN-KOH 2, 68261 is a payload satellite owned by Nihon (JP) in LEO that was launched on Sun, 26 Oct 2025 UTC via a H3-24W launch vehicle from the Tanegashima Space Center (TNSTA). Payload-class satellites include a variety of spacecraft equipped with specific instruments for various scientific and technological missions. These include communications satellites like Starlink; space stations such as the ISS; scientific satellites like the Hubble; Earth observation satellites from companies like Planet Labs, Umbra, and HawkEye 360; GPS; miniature CubeSats for education and research; and military/defense satellites.

Loading next visibility...
Identifier
68261, 2025-241B
Orbit
LEO
Country
Flag of JPJP / JPN
Related business
Manufacturer
Nihon
Mission
Operational spacecraft
Bus & Motor
CUBESAT 6U, Unknown motor
Mass
~10 kg wet, ~10 kg dry
Launch date (UTC)
2025-10-26 (8 months ago)
Launch vehicle
H3-24W
Launch site
Tanegashima Space Center (TNSTA)
Object type
Payload
Rocket body
Debris
Shape & HBR
Unknown shape, 0.1 m
Radar Cross Section
Medium (>0.1 m² and <1 m²)

Expand to show TLE details & history
Last TLE update: 10 hours ago

TLE from 10 hours ago
0 TEN-KOH 2
1 68261U 25241B   26171.42583064  .00004788  00000-0  20896-3 0  9991
2 68261  51.6704 304.2166 0005815 151.3267 208.8031 15.23935965 15404
Epoch: 2026-06-20T10:13Z
TLE epoch observation values (Epoch: 2026-06-20T10:13:11.767Z)
Latitude
-0.00008°
Longitude
-117.72312°
Altitude
498.221 km
Speed
7.615 km/s
True Right ascension
20h 16m 51s
True Declination
0° 00' 00"
Sunlit
Object was in full shadow at epoch
Visualization orbit readout
Latitude
Unknown
Longitude
Unknown
Altitude
Unknown
Speed
Unknown
Apparent Right ascension
Unknown
Apparent Declination
Unknown
Sunlit
N/A
Visualization observer readout
Local Sidereal Time
07:12:09
Azimuth
Unknown
Elevation
Unknown
Doppler factor
Unknown
Orbital elements
Apogee altitude
498.476 km
Perigee altitude
490.483 km
Semi-major axis
6,872.617 km
Eccentricity
0.00058
Inclination
51.6704°
RAAN
304.2166°
Arg. of periapsis
151.3267°
True anomaly
208.77102°
Mean anomaly
208.8031°
Eccentric anomaly
208.78706°
Mean motion
3.80943 °/min
Orbital period
94.5 mins
BSTAR
0.00020896
Loading maneuver chart data...
Computing Atmospheric mass density...
Loading historical data...
Loading historical data...
Loading historical data...
Loading historical data...
Loading historical data...
Loading historical data...
Loading historical data...
Other satellites on launch #241 in the year 2025 (2025-10-26 UTC)

Documentation

Showing up to 5 results
|